This demonstration page uses our WeatherBlox Daily Observations layout. Learn more.

Left ArrowRight Arrow

Hourly Observations for October 24, 2021

Temp ( °F °C ) Dew Point ( °F °C ) Humidity (%) Winds ( mph kmh ) Pressure ( in mb ) Visibility ( mi km ) Precip ( " mm )
12:05 am 00:05 Cloudy 54 12.2 51 10.6 90 90 S 20 31 29.72 1007 9 14 N/A
12:26 am 00:26 Cloudy with Light Rain 54 12.2 52 11.1 93 93 S 20 31 29.71 1006 4 6 0.00 0.00
12:53 am 00:53 Cloudy with Light Rain 55 12.8 51 10.6 87 87 S 25 41 29.68 1005 10 16 0.00 0.00
1:27 am 01:27 Cloudy with Light Rain 55 12.8 52 11.1 90 90 S 24 39 29.69 1005 6 10 0.02 0.51
1:53 am 01:53 Cloudy with Rain 55 12.8 52 11.1 90 90 S 25 41 29.67 1005 5 8 0.06 1.52
2:53 am 02:53 Cloudy with Rain 55 12.8 52 11.1 90 90 S 28 44 29.63 1003 5 8 0.19 4.83
3:53 am 03:53 Cloudy with Heavy Rain 55 12.8 52 11.1 90 90 S 16 26 29.58 1002 3 5 0.30 7.62
4:53 am 04:53 Cloudy with Rain 55 12.8 52 11.1 90 90 SSW 16 26 29.55 1001 4 6 0.28 7.11
5:53 am 05:53 Cloudy with Rain 54 12.2 52 11.1 93 93 S 21 33 29.51 999 5 8 0.33 8.38
6:53 am 06:53 Cloudy with Rain 54 12.2 52 11.1 93 93 S 24 39 29.45 997 4 6 0.18 4.57
7:53 am 07:53 Cloudy with Rain 54 12.2 52 11.1 93 93 S 25 41 29.44 997 4 6 0.31 7.87
8:53 am 08:53 Cloudy with Rain 55 12.8 52 11.1 90 90 S 20 31 29.42 996 3 5 0.20 5.08
9:36 am 09:36 Cloudy with Rain 55 12.8 53 11.7 93 93 WSW 10 17 29.48 998 3 4 0.13 3.30
9:49 am 09:49 Cloudy with Heavy Rain 55 13 54 12 94 94 WSW 10 17 29.48 998 1 2 0.22 5.59
9:50 am 09:50 Cloudy with Heavy Rain 55 12.8 53 11.7 93 93 WSW 9 15 29.47 998 1 2 0.23 5.84
9:59 am 09:59 Cloudy with Heavy Rain 55 12.8 53 11.7 93 93 WSW 10 17 29.48 998 2 2 0.07 1.78
10:25 am 10:25 Cloudy with Heavy Rain 55 12.8 53 11.7 93 93 SW 16 26 29.49 999 2 2 0.29 7.37
10:38 am 10:38 Cloudy with Heavy Rain 55 12.8 53 11.7 93 93 S 16 26 29.48 998 2 3 0.40 10.16
10:53 am 10:53 Cloudy with Light Rain 55 12.8 53 11.7 93 93 S 17 28 29.44 997 4 6 0.45 11.43
11:09 am 11:09 Cloudy with Rain 56 13.3 53 11.7 90 90 SSW 16 26 29.47 998 4 6 0.03 0.76
11:23 am 11:23 Cloudy with Rain 56 13.3 53 11.7 90 90 S 16 26 29.47 998 3 4 0.09 2.29
11:34 am 11:34 Cloudy with Rain 56 13.3 53 11.7 90 90 S 20 31 29.47 998 3 5 0.13 3.30
11:36 am 11:36 Cloudy with Rain 56 13.3 53 11.7 90 90 S 18 30 29.47 998 3 4 0.14 3.56
11:48 am 11:48 Cloudy with Rain 55 13 54 12 94 94 SSW 15 24 29.47 998 3 5 0.21 5.33
11:49 am 11:49 Cloudy with Rain 56 13.3 54 12.2 93 93 S 13 20 29.46 998 3 5 0.21 5.33
11:58 am 11:58 Cloudy with Rain 56 13.3 54 12.2 93 93 S 17 28 29.45 997 3 4 0.04 1.02
12:12 pm 12:12 Cloudy with Rain 56 13.3 54 12.2 93 93 S 14 22 29.45 997 3 4 0.09 2.29
12:15 pm 12:15 Cloudy with Rain 56 13.3 54 12.2 93 93 S 20 31 29.44 997 3 5 0.11 2.79
12:22 pm 12:22 Cloudy with Rain 56 13.3 54 12.2 93 93 S 17 28 29.44 997 4 6 0.13 3.30
12:27 pm 12:27 Cloudy with Light Rain 56 13.3 54 12.2 93 93 S 20 31 29.43 997 5 8 0.15 3.81
12:53 pm 12:53 Cloudy 57 13.9 54 12.2 90 90 S 16 26 29.43 997 10 16 0.17 4.32
1:29 pm 13:29 Cloudy 57 13.9 54 12.2 90 90 S 17 28 29.42 996 10 16 N/A
1:53 pm 13:53 Cloudy 57 13.9 54 12.2 90 90 S 22 35 29.39 995 10 16 N/A
2:03 pm 14:03 Cloudy 57 13.9 54 12.2 90 90 S 24 39 29.40 996 10 16 N/A
2:53 pm 14:53 Cloudy with Light Rain 57 13.9 55 12.8 93 93 S 32 52 29.37 995 5 8 0.02 0.51
3:53 pm 15:53 Cloudy with Light Rain 57 13.9 55 12.8 93 93 S 29 46 29.39 995 9 14 0.05 1.27
4:53 pm 16:53 Cloudy 58 14.4 55 12.8 90 90 S 15 24 29.43 997 10 16 0.01 0.25
5:09 pm 17:09 Cloudy 58 14.4 55 12.8 90 90 SSW 13 20 29.44 997 10 16 N/A
5:53 pm 17:53 Cloudy 58 14.4 54 12.2 87 87 S 20 31 29.43 997 10 16 N/A
6:41 pm 18:41 Cloudy 58 14.4 54 12.2 87 87 S 17 28 29.46 998 10 16 N/A
6:53 pm 18:53 Cloudy 58 14.4 54 12.2 87 87 SSW 15 24 29.45 997 10 16 N/A
7:06 pm 19:06 Cloudy 58 14.4 54 12.2 87 87 SSW 12 19 29.47 998 10 16 N/A
7:37 pm 19:37 Mostly Cloudy 57 13.9 53 11.7 87 87 S 24 39 29.47 998 10 16 N/A
7:53 pm 19:53 Cloudy 57 13.9 53 11.7 87 87 S 20 31 29.46 998 10 16 N/A
8:53 pm 20:53 Cloudy 57 13.9 53 11.7 87 87 S 24 39 29.45 997 10 16 N/A
9:08 pm 21:08 Mostly Cloudy 57 13.9 53 11.7 87 87 S 25 41 29.47 998 10 16 N/A
9:18 pm 21:18 Mostly Cloudy 57 13.9 53 11.7 87 87 SSE 22 35 29.47 998 10 16 N/A
9:33 pm 21:33 Mostly Cloudy 57 13.9 52 11.1 83 83 S 24 39 29.48 998 10 16 N/A
9:53 pm 21:53 Cloudy 57 13.9 52 11.1 83 83 S 21 33 29.47 998 10 16 N/A
10:27 pm 22:27 Cloudy 56 13.3 52 11.1 87 87 S 25 41 29.48 998 10 16 N/A
10:53 pm 22:53 Cloudy 57 13.9 52 11.1 83 83 S 18 30 29.50 999 10 16 N/A
11:05 pm 23:05 Cloudy 57 13.9 52 11.1 83 83 S 18 30 29.51 999 10 16 N/A
11:53 pm 23:53 Cloudy 56 13.3 52 11.1 87 87 S 14 22 29.51 999 10 16 N/A

Powered by AerisWeather